IGO255 VIDP-VILH

Flight info

Callsign IGO255
Flight time N/A
Altitude 37000
Route SP6J SP W39 LELAX DCT 3319N07802E/N0450F360 DCT 340000N0773953E 340504N0773438E 340754N0773442E 340918N0773315E 341005N0773124E 340959N0772836E 340830N0772736E DCT 340712N0772941E
Aircraft A20N/M-SDE2E3FGHIRWXY/LB1

Departure

Time N/A
Airport Indira Gandhi International Airport (VIDP)

Arrival

Time 2026-04-13 10:48
Airport Leh Kushok Bakula Rimpochee Airport (VILH)
Time Latitude Longitude Altitude Speed Heading
2026-04-13 09:59 29.19719 77.12728 15862 ft 376 kts 14°
2026-04-13 09:59 29.22213 77.13698 16498 ft 380 kts 14°
2026-04-13 09:59 29.24732 77.14679 17138 ft 384 kts 14°
2026-04-13 09:59 29.27276 77.15670 17743 ft 388 kts 14°
2026-04-13 10:00 29.29815 77.16659 18326 ft 392 kts 14°
2026-04-13 10:00 29.32409 77.17671 18890 ft 395 kts 14°
2026-04-13 10:00 29.35017 77.18689 19429 ft 398 kts 14°
2026-04-13 10:00 29.37647 77.19717 19954 ft 401 kts 14°
2026-04-13 10:01 29.40303 77.20754 20494 ft 405 kts 14°
2026-04-13 10:01 29.42973 77.21797 21011 ft 408 kts 13°
2026-04-13 10:01 29.45673 77.22852 21528 ft 411 kts 13°
2026-04-13 10:01 29.48398 77.23918 22030 ft 415 kts 13°
2026-04-13 10:02 29.51142 77.24993 22533 ft 418 kts 13°
2026-04-13 10:02 29.53905 77.26075 23046 ft 421 kts 13°
2026-04-13 10:02 29.56695 77.27168 23514 ft 425 kts 13°
2026-04-13 10:02 29.59493 77.28266 23959 ft 427 kts 13°
2026-04-13 10:03 29.62325 77.29378 24411 ft 429 kts 12°
2026-04-13 10:03 29.65115 77.30473 24803 ft 432 kts 12°
2026-04-13 10:03 29.67960 77.31591 25249 ft 434 kts 12°
2026-04-13 10:03 29.70833 77.32722 25677 ft 436 kts 12°
2026-04-13 10:04 29.73712 77.33855 26087 ft 439 kts 12°
2026-04-13 10:04 29.76621 77.35000 26486 ft 441 kts 12°
2026-04-13 10:04 29.79540 77.36149 26893 ft 444 kts 12°
2026-04-13 10:04 29.82473 77.37305 27297 ft 446 kts 11°
2026-04-13 10:05 29.85420 77.38467 27681 ft 449 kts 11°
2026-04-13 10:05 29.88386 77.39638 28067 ft 452 kts 11°
2026-04-13 10:05 29.91371 77.40816 28412 ft 454 kts 11°
2026-04-13 10:05 29.94372 77.42002 28762 ft 457 kts 11°
2026-04-13 10:06 29.97361 77.43104 29089 ft 455 kts
2026-04-13 10:06 30.00439 77.43830 29416 ft 449 kts 360°
2026-04-13 10:06 30.03538 77.44161 29743 ft 446 kts 355°
2026-04-13 10:06 30.06658 77.44392 30066 ft 448 kts 355°
2026-04-13 10:07 30.09778 77.44638 30415 ft 449 kts 355°
2026-04-13 10:07 30.12894 77.44887 30772 ft 449 kts 355°
2026-04-13 10:07 30.16016 77.45135 31151 ft 449 kts 355°
2026-04-13 10:07 30.19127 77.45382 31620 ft 446 kts 354°
2026-04-13 10:08 30.22193 77.45625 32093 ft 443 kts 354°
2026-04-13 10:08 30.25253 77.45866 32568 ft 439 kts 354°
2026-04-13 10:08 30.28256 77.46101 33021 ft 436 kts 354°
2026-04-13 10:08 30.31276 77.46337 33454 ft 434 kts 353°
2026-04-13 10:09 30.34277 77.46572 33866 ft 431 kts 353°
2026-04-13 10:09 30.37271 77.46806 34171 ft 431 kts 353°
2026-04-13 10:09 30.40265 77.47037 34389 ft 432 kts 353°
2026-04-13 10:09 30.43263 77.47270 34626 ft 433 kts 353°
2026-04-13 10:10 30.46280 77.47505 34849 ft 433 kts 353°
2026-04-13 10:10 30.49290 77.47740 35073 ft 434 kts 353°
2026-04-13 10:10 30.52303 77.47977 35301 ft 434 kts 353°
2026-04-13 10:10 30.55322 77.48215 35610 ft 433 kts 353°
2026-04-13 10:11 30.58320 77.48452 35950 ft 432 kts 353°
2026-04-13 10:11 30.61330 77.48688 36122 ft 434 kts 353°
2026-04-13 10:11 30.64347 77.48925 36335 ft 435 kts 353°
2026-04-13 10:11 30.67362 77.49160 36677 ft 434 kts 352°
2026-04-13 10:12 30.70383 77.49399 36861 ft 435 kts 352°
2026-04-13 10:12 30.76372 77.49873 36916 ft 433 kts 352°
2026-04-13 10:13 30.82377 77.50350 36928 ft 429 kts 352°
2026-04-13 10:13 30.88349 77.50821 36931 ft 433 kts 352°
2026-04-13 10:14 30.94396 77.51297 36938 ft 436 kts 352°
2026-04-13 10:14 31.00478 77.51783 36944 ft 437 kts 352°
2026-04-13 10:15 31.06505 77.52261 36949 ft 437 kts 352°
2026-04-13 10:15 31.12579 77.52742 36943 ft 437 kts 352°
2026-04-13 10:16 31.18656 77.53226 36958 ft 438 kts 352°
2026-04-13 10:16 31.24742 77.53722 36938 ft 440 kts 352°
2026-04-13 10:17 31.30823 77.54224 36959 ft 435 kts 352°
2026-04-13 10:17 31.36886 77.54718 36977 ft 438 kts 352°
2026-04-13 10:18 31.42907 77.55216 36983 ft 432 kts 352°
2026-04-13 10:18 31.48908 77.55710 37002 ft 434 kts 352°
2026-04-13 10:19 31.54975 77.56201 37002 ft 437 kts 352°
2026-04-13 10:19 31.61057 77.56709 37034 ft 437 kts 352°
2026-04-13 10:20 31.67141 77.57211 37056 ft 438 kts 352°
2026-04-13 10:20 31.73206 77.57710 37069 ft 437 kts 352°
2026-04-13 10:21 31.79282 77.58211 37101 ft 437 kts 352°
2026-04-13 10:21 31.85359 77.58714 37123 ft 438 kts 351°
2026-04-13 10:22 31.91449 77.59218 37139 ft 437 kts 352°
2026-04-13 10:22 31.97522 77.59720 37155 ft 437 kts 352°
2026-04-13 10:23 32.03577 77.60216 37147 ft 437 kts 352°
2026-04-13 10:23 32.09637 77.60727 37177 ft 437 kts 352°
2026-04-13 10:24 32.15693 77.61234 37185 ft 436 kts 352°
2026-04-13 10:24 32.21753 77.61737 37178 ft 435 kts 352°
2026-04-13 10:25 32.27777 77.62239 37194 ft 436 kts 352°
2026-04-13 10:25 32.33825 77.62741 37196 ft 437 kts 352°
2026-04-13 10:26 32.39890 77.63803 37194 ft 451 kts
2026-04-13 10:26 32.45925 77.66127 37194 ft 456 kts
2026-04-13 10:27 32.51908 77.68687 37193 ft 460 kts
2026-04-13 10:27 32.57941 77.71281 37180 ft 460 kts
2026-04-13 10:28 32.63976 77.73877 37158 ft 460 kts
2026-04-13 10:28 32.69970 77.76461 37178 ft 462 kts
2026-04-13 10:29 32.76097 77.79100 37155 ft 475 kts
2026-04-13 10:29 32.82353 77.81809 37130 ft 479 kts
2026-04-13 10:30 32.88638 77.84543 37121 ft 483 kts
2026-04-13 10:30 32.94932 77.87285 37116 ft 480 kts
2026-04-13 10:31 33.01257 77.90036 37102 ft 485 kts
2026-04-13 10:31 33.07574 77.92791 37085 ft 481 kts
2026-04-13 10:32 33.13878 77.95541 37070 ft 485 kts 10°
2026-04-13 10:32 33.20249 77.98316 37038 ft 483 kts 11°
2026-04-13 10:32 33.23385 77.99695 36741 ft 478 kts 10°
2026-04-13 10:33 33.26472 78.01039 36018 ft 479 kts
2026-04-13 10:33 33.29681 78.01938 35138 ft 466 kts 356°
2026-04-13 10:33 33.32862 78.02026 34264 ft 452 kts 344°
2026-04-13 10:34 33.38698 77.99943 32277 ft 433 kts 326°
2026-04-13 10:34 33.41416 77.98356 31234 ft 437 kts 326°
2026-04-13 10:34 33.44135 77.96766 30281 ft 441 kts 327°
2026-04-13 10:34 33.46877 77.95222 29601 ft 428 kts 328°
2026-04-13 10:35 33.49541 77.93764 29040 ft 415 kts 328°
2026-04-13 10:35 33.52135 77.92363 28508 ft 401 kts 329°
2026-04-13 10:35 33.54654 77.91007 27888 ft 391 kts 329°
2026-04-13 10:35 33.57097 77.89693 27409 ft 380 kts 329°
2026-04-13 10:36 33.59528 77.88376 26846 ft 389 kts 329°
2026-04-13 10:36 33.62015 77.87022 26516 ft 398 kts 329°
2026-04-13 10:36 33.64562 77.85643 25980 ft 400 kts 330°
2026-04-13 10:36 33.67096 77.84273 25227 ft 406 kts 330°
2026-04-13 10:37 33.69685 77.82873 24430 ft 406 kts 331°
2026-04-13 10:37 33.72235 77.81502 24029 ft 394 kts 331°
2026-04-13 10:37 33.74706 77.80175 23753 ft 382 kts 331°
2026-04-13 10:37 33.77074 77.78903 23588 ft 363 kts 331°
2026-04-13 10:38 33.79331 77.77689 23411 ft 345 kts 331°
2026-04-13 10:38 33.81432 77.76557 23248 ft 326 kts 330°
2026-04-13 10:38 33.83452 77.75469 23079 ft 308 kts 330°
2026-04-13 10:38 33.85363 77.74434 22828 ft 294 kts 330°
2026-04-13 10:39 33.87179 77.73449 22602 ft 276 kts 330°
2026-04-13 10:39 33.88875 77.72530 22446 ft 260 kts 329°
2026-04-13 10:39 33.90497 77.71648 22033 ft 251 kts 330°
2026-04-13 10:39 33.92091 77.70777 21420 ft 252 kts 330°
2026-04-13 10:40 33.93681 77.69907 20760 ft 253 kts 330°
2026-04-13 10:40 33.95266 77.69044 20220 ft 251 kts 330°
2026-04-13 10:40 33.96847 77.68183 19721 ft 248 kts 330°
2026-04-13 10:40 33.98418 77.67327 19196 ft 247 kts 330°
2026-04-13 10:41 33.99940 77.66391 18661 ft 244 kts 322°
2026-04-13 10:41 34.01276 77.65167 18155 ft 239 kts 314°
2026-04-13 10:41 34.02502 77.63869 17847 ft 227 kts 315°
2026-04-13 10:41 34.03683 77.62646 17788 ft 223 kts 315°
2026-04-13 10:42 34.04840 77.61451 17791 ft 212 kts 315°
2026-04-13 10:42 34.05571 77.60701 17737 ft 203 kts 315°
2026-04-13 10:42 34.06603 77.59639 17638 ft 187 kts 315°
2026-04-13 10:42 34.07871 77.58339 17323 ft 177 kts 319°
2026-04-13 10:43 34.09015 77.57743 16938 ft 185 kts 346°
2026-04-13 10:43 34.10311 77.57751 16740 ft 186 kts 355°
2026-04-13 10:43 34.11160 77.57788 16820 ft 181 kts 355°
2026-04-13 10:43 34.12387 77.57827 16778 ft 172 kts 352°
2026-04-13 10:44 34.13504 77.57469 16818 ft 163 kts 322°
2026-04-13 10:44 34.14369 77.56601 16733 ft 165 kts 313°
2026-04-13 10:44 34.15228 77.55646 16456 ft 169 kts 308°
2026-04-13 10:44 34.15897 77.54507 16058 ft 164 kts 294°
2026-04-13 10:45 34.16396 77.53287 15657 ft 160 kts 293°
2026-04-13 10:45 34.16738 77.52043 15265 ft 155 kts 277°
2026-04-13 10:45 34.16736 77.50734 14942 ft 157 kts 261°
2026-04-13 10:45 34.16516 77.49440 14411 ft 161 kts 258°
2026-04-13 10:46 34.16300 77.48075 13808 ft 170 kts 256°
2026-04-13 10:46 34.15729 77.46843 13296 ft 174 kts 227°
2026-04-13 10:46 34.14588 77.46250 12527 ft 190 kts 189°
2026-04-13 10:46 34.13301 77.46724 11906 ft 202 kts 146°
2026-04-13 10:47 34.12583 77.48111 11632 ft 195 kts 105°
2026-04-13 10:47 34.12420 77.49690 11222 ft 193 kts 95°
2026-04-13 10:47 34.12614 77.51256 10842 ft 185 kts 67°
2026-04-13 10:47 34.13033 77.52685 10583 ft 177 kts 68°
2026-04-13 10:48 34.13417 77.53974 10606 ft 139 kts 72°
2026-04-13 10:48 34.13666 77.54845 10690 ft 80 kts 71°
2026-04-13 10:48 34.13793 77.55279 10740 ft 30 kts 71°
2026-04-13 10:48 34.13848 77.55430 10752 ft 11 kts 30°
2026-04-13 10:49 34.13905 77.55432 10760 ft 6 kts 354°
2026-04-13 10:49 34.13957 77.55422 10767 ft 10 kts 348°
2026-04-13 10:49 34.14024 77.55409 10771 ft 7 kts 351°
2026-04-13 10:49 34.14071 77.55400 10776 ft 9 kts 348°
2026-04-13 10:50 34.14119 77.55379 10787 ft 9 kts 332°
2026-04-13 10:50 34.14195 77.55321 10787 ft 14 kts 301°
2026-04-13 10:50 34.14153 77.55274 10775 ft 7 kts 145°
2026-04-13 10:50 34.14137 77.55288 10773 ft 0 kts 155°
2026-04-13 10:51 34.14138 77.55288 10773 ft 0 kts 155°